Overview Statistics Trail Chart Weather Telemetry Raw packets
 

This is the latest recevied weather packets stored in our database for station/object NL3D. If no packets are shown the sender has not sent any weather packets the latest 10 day(s).

<< 36 37 38 39 40 41 42 >>
Time Temp. Humidity Pressure Rain* Wind** Luminosity Snow
1777451259 3.89° C 61% 1019.8 hPa 0 mm - 0 W/m² -
1777450956 3.89° C 61% 1019.8 hPa 0 mm - 0 W/m² -
1777450651 4.44° C 62% 1020 hPa 0 mm - 0 W/m² -
1777450348 4.44° C 62% 1019.7 hPa 0 mm - 0 W/m² -
1777450045 3.89° C 63% 1019.8 hPa 0 mm - 0 W/m² -
1777449740 3.89° C 63% 1019.6 hPa 0 mm - 0 W/m² -
1777449437 3.89° C 64% 1019.6 hPa 0 mm - 0 W/m² -
1777449132 3.89° C 64% 1019.6 hPa 0 mm - 0 W/m² -
1777448828 4.44° C 64% 1019.6 hPa 0 mm - 0 W/m² -
1777448526 4.44° C 64% 1019.6 hPa 0 mm - 0 W/m² -
1777448222 4.44° C 65% 1019.6 hPa 0 mm - 0 W/m² -
1777447918 3.89° C 65% 1019.4 hPa 0 mm - 0 W/m² -
1777447614 3.89° C 66% 1019.5 hPa 0 mm - 0 W/m² -
1777447310 3.89° C 66% 1019.1 hPa 0 mm - 0 W/m² -
1777447009 3.33° C 67% 1019.5 hPa 0 mm - 0 W/m² -
1777446706 2.78° C 74% 1019.1 hPa 0 mm - 0 W/m² -
1777446401 1.67° C 80% 1019.3 hPa 0 mm - 0 W/m² -
1777446098 1.11° C 87% 1019.1 hPa 0 mm - 0 W/m² -
1777445795 0.56° C 93% 1019.3 hPa 0 mm - 0 W/m² -
1777445490 0.56° C 93% 1019.2 hPa 0 mm - 0 W/m² -
1777445187 0.56° C 93% 1019.2 hPa 0 mm - 0 W/m² -
1777444883 0.56° C 94% 1019.3 hPa 0 mm - 0 W/m² -
1777444579 0.56° C 93% 1019.2 hPa 0 mm - 0 W/m² -
1777444277 1.11° C 93% 1019.1 hPa 0 mm - 0 W/m² -
1777443973 1.11° C 93% 1019 hPa 0 mm - 0 W/m² -

* Rain latest hour (hover to see other rain measurements)
** Current wind speed in m/s (hover to see current wind gust speed)